Weather Service Report


358 
ASUS42 KTBW 270417
RWRFL 
FLORIDA REGIONAL WEATHER ROUNDUP
NATIONAL WEATHER SERVICE TAMPA BAY RUSKIN FL
1200 AM EDT MON APR 27 2015

NOTE: "FAIR" INDICATES FEW OR NO CLOUDS BELOW 12,000 FEET WITH NO
SIGNIFICANT WEATHER AND/OR OBSTRUCTIONS TO VISIBILITY.


FLZ001>010-012>015-112-114-115-270500-
PANHANDLE FLORIDA
  
CITY           SKY/WX    TMP DP  RH WIND       PRES   REMARKS
PENSACOLA      CLOUDY    74  72  93 SW6       29.74R                  
PENSACOLA NAS  CLOUDY    74  72  93 CALM      29.74R FOG              
MILTON NAS     CLOUDY    69  67  93 CALM      29.74                   
CRESTVIEW      MOCLDY    69  67  93 CALM      29.74F                  
DUKE FIELD     FAIR      71  69  95 S2        29.72F                  
VALPARAISO     CLOUDY    74  72  93 W2        29.73F                  
MARY ESTHER    CLOUDY    75  71  87 SW3       29.73F                  
TRI COUNTY     FAIR      68  66  93 CALM      29.75R                  
PANAMA CITY    FAIR      71  69  93 CALM      29.73F                  
TYNDALL AFB    PTCLDY    73  71  95 W2        29.73F                  
APALACHICOLA   CLOUDY    77  72  84 CALM      29.72F                  

STATION/POSITION SKY/WX   TEMP    WIND        PRES    WAVE   SWELL
                          AIR SEA DIR/SP/G            HT/PER HT/PER
                          (F)     (DEG/KT/KT) (MB)    (FT/S) (FT/S)
30.1N   87.6W              75 75  240/  4/  6 1006.6R   2/ 6   2/ 6
29.2N   88.2W              77 77  140/  2/  4 1007.9R   3/ 6   3/ 6
28.8N   86.0W              77 76  210/ 12/ 14 1007.4R   4/ 7   3/ 7
PANAMA CITY BEAC           76 77  260/  8/  9 1007.1R
CAPE SAN BLAS    NOT AVBL
TOWER C                    76     300/  4/  5 1006.5F
28.5N   84.5W              78 77  200/ 12/ 14 1007.0F   4/ 6   3/ 6

$$
FLZ011-016>038-118-127-128-134-139-239-270500-
NORTH FLORIDA
  
CITY           SKY/WX    TMP DP  RH WIND       PRES   REMARKS
MARIANNA       PTCLDY    72  69  90 W5        29.73S                  
TALLAHASSEE    CLOUDY    74  69  85 W6        29.73S                  
PERRY          CLOUDY    74  72  94 CALM      29.74S                  
CROSS CITY       N/A     76  72  87 N3        29.72F                  
LAKE CITY      FAIR      73  72  94 SW7       29.74R                  
GAINESVILLE    CLOUDY    75  71  87 W8        29.73F                  
MAYPORT NAS    CLOUDY    79  70  74 SW8       29.71S                  
JACKSONVILLE   CLOUDY    75  69  81 SW7       29.71R                  
JAX NAS        MOCLDY    82  68  62 W9        29.72S                  
JAX CRAIG      CLOUDY    79  68  69 W12       29.71S                  
JAX CECIL      CLOUDY    75  68  78 SW6       29.73S                  
FERNANDINA BEA FAIR      81  72  74 W8        29.69S                  
ST AUGUSTINE   MOCLDY    78  72  81 SW8       29.73S                  

STATION/POSITION SKY/WX   TEMP    WIND        PRES    WAVE   SWELL
                          AIR SEA DIR/SP/G            HT/PER HT/PER
                          (F)     (DEG/KT/KT) (MB)    (FT/S) (FT/S)
SHELL POINT                76     270/  8/ 11   N/A
KEATON BEACH               77     270/  8/ 10 1006.9F
CEDAR KEY                  78     290/  5/  7 1007.2F
FERNANDINA                 79 76  250/ 11/ 13 1005.2R
30.7N   81.3W                 70                N/A     1/ 5
MAYPORT                    80 73  260/  9/ 12 1006.0R
31.4N   80.9W              75 71  260/  8/ 10 1005.2R   1/ 5   2/ 5
ST AUGUSTINE               77 68  250/  8/ 11 1007.2R

$$
FLZ040-043>046-052-053-057-058-063-144-270500-
INTERIOR CENTRAL FLORIDA
  
CITY           SKY/WX    TMP DP  RH WIND       PRES   REMARKS
OCALA          CLOUDY    77  72  83 SW7       29.75S                  
THE VILLAGES     N/A     79  79 100 SW5       29.66S                  
LEESBURG       CLOUDY    79  75  87 SW7       29.78R                  
SANFORD        CLOUDY    79  73  82 W8        29.75S                  
ORLANDO EXEC   CLOUDY    80  73  79 W13       29.76S                  
ORLANDO INTL   CLOUDY    80  74  81 W8        29.77S                  
WINTER HAVEN   MOCLDY    80  74  81 SW8       29.79F                  
LAKELAND       CLOUDY    79  73  83 W7        29.79F                  
BARTOW         FAIR      79  75  89 SW7       29.79F                  
OKEECHOBEE     MOCLDY    75  72  88 SW7       29.81S                  

$$
FLZ041-047-054-059-064-141-147-270500-
EAST CENTRAL FLORIDA
  
CITY           SKY/WX    TMP DP  RH WIND       PRES   REMARKS
DAYTONA BEACH  CLOUDY    78  73  84 W10       29.74F                  
DELAND           N/A     77  73  88 SW5       29.76S                  
JFK SPACE CTR  MOCLDY    80  73  79 W8        29.74S                  
CAPE CANAVERAL MOCLDY    80  73  78 W13       29.74S                  
PATRICK AFB    PTCLDY    80  74  80 W15       29.75F                  
MELBOURNE      PTCLDY    80  72  76 SW13      29.76S                  
VERO BEACH     PTCLDY    79  70  74 W10       29.79R                  
FT PIERCE      MOCLDY    79  72  79 W9        29.79S                  
STUART         PTCLDY    79  72  78 W9        29.81S                  

STATION/POSITION SKY/WX   TEMP    WIND        PRES    WAVE   SWELL
                          AIR SEA DIR/SP/G            HT/PER HT/PER
                          (F)     (DEG/KT/KT) (MB)    (FT/S) (FT/S)
28.5N   80.2W              79 77  240/ 12/ 14 1007.4R
28.9N   78.5W              79 78  210/ 12/ 14 1006.4F
TRIDENT PIER               81 79  230/ 13/ 17 1008.0R
28.4N   80.5W                 78                N/A     1/ 2
27.5N   80.2W                 77                N/A     2/ 2

$$
FLZ050-056-061-142-242-148-248-149-249-151-251-155-255-
160-260-270500-
WEST CENTRAL FLORIDA
  
CITY           SKY/WX    TMP DP  RH WIND       PRES   REMARKS
CRYSTAL RIVER  MOCLDY    79  73  83 SW5       29.75F                  
INVERNESS      MOCLDY   N/A N/A N/A W3        29.77S                  
BROOKSVILLE    MOCLDY    78  74  87 W9        29.79R                  
CLEARWATER     MOCLDY    80  76  87 W9        29.79S                  
TAMPA INTL     MOCLDY    80  74  81 W10       29.79S                  
TAMPA EXEC     MOCLDY    81  73  78 W3        29.79F                  
PLANT CITY     MOCLDY    81  77  89 W9        29.81S                  
MACDILL AFB    PTCLDY    80  78  94 W8        29.79S                  
PETER O KNIGHT PTCLDY    82  77  83 W6        29.79S                  
ST PETERSBURG  CLOUDY    81  75  82 W9        29.77F                  
SARASOTA       MOCLDY    80  76  87 SW10      29.78F                  
VENICE         MOCLDY    81  77  89 W10       29.82F                  

STATION/POSITION SKY/WX   TEMP    WIND        PRES    WAVE   SWELL
                          AIR SEA DIR/SP/G            HT/PER HT/PER
                          (F)     (DEG/KT/KT) (MB)    (FT/S) (FT/S)
CEDAR KEY                  78     290/  5/  7 1007.2F
28.5N   84.5W              78 77  200/ 12/ 14 1007.0F   4/ 6   3/ 6
27.3N   84.2W                 79                N/A     4/ 6
CLEARWATER BEACH NOT AVBL
MIDDLE TAMPA BAY           81     280/ 14/ 18 1009.3S
VENICE                     81 84  260/ 11/ 13 1009.0F

$$
FLZ066-069-070-075>078-162-262-165-265-270500-
SOUTHWEST FLORIDA AND KEYS
  
CITY           SKY/WX    TMP DP  RH WIND       PRES   REMARKS
PUNTA GORDA    PTCLDY    79  75  87 W10       29.83F                  
FT MYERS       CLEAR     80  76  87 W9        29.82R                  
SOUTHWEST INTL CLEAR     79  75  87 W5        29.83S                  
NAPLES         CLEAR     82  76  81 W7        29.82F                  
MARCO ISLAND   MOCLDY    81  73  78 W6        29.82F                  
IMMOKALEE      CLEAR    N/A N/A N/A CALM      29.83S                  
MARATHON       CLEAR     84  77  79 NW6       29.84S                  
KEY WEST NAS   CLEAR     83  76  79 NW6       29.85R                  
KEY WEST INTL  CLEAR     83  79  88 NW6       29.86R                  

STATION/POSITION SKY/WX   TEMP    WIND        PRES    WAVE   SWELL
                          AIR SEA DIR/SP/G            HT/PER HT/PER
                          (F)     (DEG/KT/KT) (MB)    (FT/S) (FT/S)
VENICE                     81 84  260/ 11/ 13 1009.0F
NAPLES                     82 85  270/  7/ 11 1009.9F
26.0N   85.6W              79 79   30/  2/  2 1009.4R   3/ 6   3/ 6
DRY TORTUGAS               82     300/  4/  5 1010.5R
NW FL BAY                  84     330/ 10/ 12 1010.8
SAND KEY                   82     270/  6/  7 1011.0R
SOMBRERO KEY               84     310/  9/ 11 1011.4R
LONG KEY                   83 87  320/ 10/ 12 1011.4R
MOLASSES REEF              83 81  320/  8/  8 1010.5R

$$
FLZ067-068-071>074-168-172>174-270500-
SOUTHEAST FLORIDA 
  
CITY           SKY/WX    TMP DP  RH WIND       PRES   REMARKS
W PALM BEACH   PTCLDY    81  72  74 W12       29.82S                  
FT LAUDER-EXEC CLEAR     81  74  79 W8        29.82S                  
FT LAUDERDALE  PTCLDY    81  74  79 W8        29.82S                  
POMPANO BEACH  CLEAR     81  73  76 W9        29.82S                  
PEMBROKE PINES CLEAR     81  73  76 W9        29.84S                  
OPA LOCKA      CLEAR     81  74  79 W9        29.84R                  
MIAMI          CLEAR     81  74  79 W9        29.84R                  
WEST KENDALL   CLEAR     76  73  91 NW3       29.84S                  
HOMESTEAD      CLEAR     79  74  85 W7        29.83F                  

STATION/POSITION SKY/WX   TEMP    WIND        PRES    WAVE   SWELL
                          AIR SEA DIR/SP/G            HT/PER HT/PER
                          (F)     (DEG/KT/KT) (MB)    (FT/S) (FT/S)
PORT EVERGLADES            82     270/  9/ 12 1009.9R
VIRGINIA KEY               83 84  280/  8/ 13 1009.7R
LAKE WORTH                 82 79  260/  7/ 13 1009.0R
SETTLEMENT POINT           83     280/ 15/ 17 1009.6R

$$


Return to Home page


Western Regional Climate Center, wrcc@dri.edu